Date String (YYYY-MM-DD hh:mm:ss) UTC,Instrument flags,absolute air pressure of the measurement (hPa),sample flow rate (lpm),inlet stack bypass flow (lpm),air temperature of the measurement (°C),ambient temperature measured by the external sensor (°C),aerosol sample conditioner tube jacket temperature (°C),OPC LED temperature (°C),internal box temperature (°C),relative humidity of the measurement (%),span deviation,mass concentration of particles derived from Lorenz-Mie calculation of OPC scattering (μg/m³),mass concentration of particles derived from Lorenz-Mie calculation of OPC scattering (μg/m³),mass concentration of particles derived from Lorenz-Mie calculation of OPC scattering (μg/m³)
DateTimeUTC,F1_M11,P_M11,Q1_M11,Q2_M11,T1_M11,T2_M11,T3_M11,T4_M11,T5_M11,U1_M11,ZSPAN_M11,X2_M11,X0_M11,X1_M11
2024-03-24 11:00:00,SystemResetWarning,0810.3,4.99,000.00,022.1,021.3,000.0,030.8,024.0,22.0,0001.4,0016.36,0036.56,0013.69
2024-03-24 11:01:00,SystemResetWarning,0810.4,5.01,000.00,022.1,021.3,000.0,030.8,024.0,22.0,0001.8,0016.34,0036.51,0013.71
2024-03-24 11:02:00,SystemResetWarning,0810.5,5.01,000.00,022.1,021.2,000.0,030.8,023.9,22.0,0001.4,0016.48,0036.44,0013.77
2024-03-24 11:03:00,SystemResetWarning,0810.4,5.00,000.00,022.0,021.2,000.0,030.8,023.9,22.0,0001.2,0016.51,0035.91,0013.83
2024-03-24 11:04:00,SystemResetWarning,0810.4,5.00,000.00,022.0,021.2,000.0,030.8,023.9,22.0,0001.2,0016.52,0035.85,0013.84
2024-03-24 11:05:00,SystemResetWarning,0810.4,5.00,000.00,022.0,021.2,000.0,030.8,023.9,22.0,0001.2,0016.48,0036.14,0013.81
2024-03-24 11:06:00,SystemResetWarning,0810.4,4.99,000.00,022.0,021.2,000.0,030.7,023.9,22.0,0001.2,0016.42,0036.42,0013.82
2024-03-24 11:07:00,SystemResetWarning,0810.5,5.00,000.00,022.0,021.2,000.0,030.7,023.9,22.0,0001.2,0016.54,0037.08,0013.86
2024-03-24 11:08:00,SystemResetWarning,0810.4,5.00,000.00,022.0,021.2,000.0,030.7,023.9,22.0,0001.3,0016.60,0036.70,0013.88
2024-03-24 11:09:00,SystemResetWarning,0810.3,5.01,000.00,022.0,021.2,000.0,030.7,023.9,22.0,0001.6,0016.54,0037.83,0013.85
2024-03-24 11:10:00,SystemResetWarning,0810.2,5.00,000.00,022.0,021.2,000.0,030.7,023.9,22.0,0001.9,0016.56,0039.48,0013.85
2024-03-24 11:11:00,SystemResetWarning,0810.2,5.00,000.00,022.0,021.2,000.0,030.7,023.9,22.0,0001.6,0016.60,0041.29,0013.87
2024-03-24 11:12:00,SystemResetWarning,0810.2,5.00,000.00,022.0,021.2,000.0,030.7,023.9,22.0,0001.2,0016.63,0040.49,0013.90
2024-03-24 11:13:00,SystemResetWarning,0810.2,5.01,000.00,022.0,021.2,000.0,030.7,023.9,22.0,0001.7,0016.59,0041.30,0013.86
2024-03-24 11:14:00,SystemResetWarning,0810.2,5.00,000.00,022.0,021.2,000.0,030.7,023.9,22.0,0002.1,0016.66,0042.10,0013.82
2024-03-24 11:15:00,SystemResetWarning,0810.2,5.00,000.00,022.0,021.2,000.0,030.7,023.9,22.0,0002.1,0016.63,0040.20,0013.84
2024-03-24 11:16:00,SystemResetWarning,0810.1,5.00,000.00,022.0,021.2,000.0,030.7,023.9,22.0,0002.1,0016.62,0039.11,0013.89
2024-03-24 11:17:00,SystemResetWarning,0810.1,4.99,000.00,021.9,021.2,000.0,030.7,023.9,22.0,0002.1,0016.72,0039.18,0013.94
2024-03-24 11:18:00,SystemResetWarning,0810.1,4.99,000.00,021.9,021.2,000.0,030.7,023.9,22.0,0002.0,0016.79,0038.63,0013.99
2024-03-24 11:19:00,SystemResetWarning,0810.1,5.00,000.00,021.9,021.2,000.0,030.6,023.8,22.1,0002.0,0016.87,0040.89,0014.02
2024-03-24 11:20:00,SystemResetWarning,0810.2,5.00,000.00,021.9,021.2,000.0,030.6,023.8,22.1,0001.8,0017.06,0041.68,0014.05
2024-03-24 11:21:00,SystemResetWarning,0810.2,5.00,000.00,021.9,021.1,000.0,030.6,023.8,22.1,0001.6,0017.16,0041.92,0014.07
2024-03-24 11:22:00,SystemResetWarning,0810.2,5.00,000.00,021.9,021.1,000.0,030.6,023.8,22.2,0001.5,0017.19,0041.68,0014.06
2024-03-24 11:23:00,SystemResetWarning,0810.2,5.00,000.00,021.9,021.1,000.0,030.6,023.8,22.2,0001.8,0017.26,0042.54,0014.06
2024-03-24 11:24:00,SystemResetWarning,0810.1,5.01,000.00,021.9,021.1,000.0,030.6,023.8,22.2,0001.7,0017.26,0041.76,0014.08
2024-03-24 11:25:00,SystemResetWarning,0810.1,5.00,000.00,021.9,021.1,000.0,030.6,023.8,22.2,0001.6,0017.20,0040.64,0014.12
2024-03-24 11:26:00,SystemResetWarning,0810.1,5.00,000.00,021.9,021.1,000.0,030.6,023.8,22.2,0001.8,0017.30,0041.45,0014.14
2024-03-24 11:27:00,SystemResetWarning,0810.1,5.00,000.00,021.9,021.1,000.0,030.6,023.8,22.2,0002.0,0017.35,0041.52,0014.16
2024-03-24 11:28:00,SystemResetWarning,0810.0,5.00,000.00,021.9,021.1,000.0,030.6,023.8,22.1,0002.1,0017.30,0040.85,0014.15
2024-03-24 11:29:00,SystemResetWarning,0810.0,5.00,000.00,021.9,021.1,000.0,030.6,023.8,22.2,0002.3,0017.21,0040.40,0014.09
2024-03-24 11:30:00,SystemResetWarning,0810.1,4.99,000.00,021.9,021.1,000.0,030.6,023.8,22.2,0002.3,0017.12,0038.97,0014.05
2024-03-24 11:31:00,SystemResetWarning,0810.1,5.00,000.00,021.9,021.1,000.0,030.6,023.8,22.2,0002.4,0016.98,0038.61,0014.03
2024-03-24 11:32:00,SystemResetWarning,0810.1,5.00,000.00,021.9,021.1,000.0,030.6,023.8,22.1,0002.4,0016.79,0037.94,0013.95
2024-03-24 11:33:00,SystemResetWarning,0810.2,5.00,000.00,021.8,021.1,000.0,030.6,023.8,22.0,0002.5,0016.73,0037.33,0013.90
2024-03-24 11:34:00,SystemResetWarning,0810.3,5.00,000.00,021.8,021.1,000.0,030.5,023.8,22.0,0002.4,0016.64,0036.40,0013.85
2024-03-24 11:35:00,SystemResetWarning,0810.2,5.00,000.00,021.8,021.1,000.0,030.5,023.7,21.9,0002.1,0016.66,0036.99,0013.83
2024-03-24 11:36:00,SystemResetWarning,0810.1,4.99,000.00,021.8,021.1,000.0,030.5,023.7,21.7,0002.2,0016.62,0037.83,0013.77
2024-03-24 11:37:00,SystemResetWarning,0810.1,5.01,000.00,021.8,021.1,000.0,030.5,023.7,21.8,0002.1,0016.56,0038.13,0013.69
2024-03-24 11:38:00,SystemResetWarning,0810.1,5.00,000.00,021.8,021.1,000.0,030.5,023.7,21.9,0001.7,0016.51,0038.21,0013.63
2024-03-24 11:39:00,SystemResetWarning,0810.0,5.01,000.00,021.8,021.0,000.0,030.5,023.7,22.0,0001.8,0016.49,0040.34,0013.59
2024-03-24 11:40:00,SystemResetWarning,0810.0,5.00,000.00,021.8,021.0,000.0,030.5,023.7,22.0,0001.7,0016.49,0041.45,0013.60
2024-03-24 11:41:00,SystemResetWarning,0810.1,4.99,000.00,021.8,021.0,000.0,030.5,023.7,22.0,0001.8,0016.42,0040.83,0013.59
2024-03-24 11:42:00,SystemResetWarning,0810.1,4.99,000.00,021.8,020.9,000.0,030.5,023.7,22.0,0002.0,0016.39,0040.07,0013.56
2024-03-24 11:43:00,SystemResetWarning,0810.1,5.00,000.00,021.8,020.9,000.0,030.5,023.7,21.9,0002.3,0016.43,0039.07,0013.60
2024-03-24 11:44:00,SystemResetWarning,0810.1,5.00,000.00,021.8,020.9,000.0,030.5,023.7,21.8,0002.2,0016.46,0038.53,0013.62
2024-03-24 11:45:00,SystemResetWarning,0810.0,5.01,000.00,021.8,020.9,000.0,030.5,023.6,22.0,0002.2,0016.46,0037.62,0013.63
2024-03-24 11:46:00,SystemResetWarning,0809.9,5.01,000.00,021.7,021.0,000.0,030.5,023.6,22.1,0002.1,0016.40,0036.80,0013.62
2024-03-24 11:47:00,SystemResetWarning,0810.0,5.00,000.00,021.7,020.9,000.0,030.5,023.6,22.1,0001.9,0016.40,0037.41,0013.65
2024-03-24 11:48:00,SystemResetWarning,0810.1,4.99,000.00,021.7,020.9,000.0,030.5,023.6,22.1,0001.7,0016.42,0036.74,0013.71
2024-03-24 11:49:00,SystemResetWarning,0810.0,4.99,000.00,021.7,020.9,000.0,030.4,023.6,22.0,0002.0,0016.44,0036.70,0013.72
2024-03-24 11:50:00,SystemResetWarning,0810.0,5.00,000.00,021.7,020.9,000.0,030.4,023.6,21.9,0002.2,0016.40,0037.54,0013.72
2024-03-24 11:51:00,SystemResetWarning,0810.0,5.01,000.00,021.7,020.9,000.0,030.4,023.6,21.8,0002.3,0016.37,0037.74,0013.71
2024-03-24 11:52:00,SystemResetWarning,0809.9,5.01,000.00,021.7,020.9,000.0,030.4,023.6,21.8,0002.1,0016.47,0038.45,0013.74
2024-03-24 11:53:00,SystemResetWarning,0810.0,5.00,000.00,021.7,020.9,000.0,030.4,023.6,21.8,0001.9,0016.53,0039.26,0013.78
2024-03-24 11:54:00,SystemResetWarning,0810.0,4.99,000.00,021.7,020.9,000.0,030.4,023.6,21.8,0001.8,0016.57,0039.95,0013.83
2024-03-24 11:55:00,SystemResetWarning,0810.0,5.00,000.00,021.7,020.8,000.0,030.4,023.6,21.8,0001.6,0016.64,0040.06,0013.90
2024-03-24 11:56:00,SystemResetWarning,0810.0,4.99,000.00,021.7,020.8,000.0,030.4,023.5,21.8,0001.7,0016.66,0040.07,0013.93
2024-03-24 11:57:00,SystemResetWarning,0810.0,5.00,000.00,021.7,020.9,000.0,030.4,023.5,21.8,0001.9,0016.63,0041.29,0013.95
2024-03-24 11:58:00,SystemResetWarning,0810.0,5.00,000.00,021.7,020.9,000.0,030.4,023.5,21.8,0002.0,0016.66,0041.47,0013.98
2024-03-24 11:59:00,SystemResetWarning,0810.0,5.00,000.00,021.6,020.9,000.0,030.4,023.5,21.8,0002.1,0016.66,0041.76,0013.98
